Year,Month,Day,Hour,Minute,Value (Times are PST for temperature in C)
2010,11,09,00,00,2.70
2010,11,09,00,01,2.70
2010,11,09,00,02,2.70
2010,11,09,00,03,2.80
2010,11,09,00,04,2.90
2010,11,09,00,05,3.00
2010,11,09,00,06,3.10
2010,11,09,00,07,3.20
2010,11,09,00,08,3.30
2010,11,09,00,09,3.40
2010,11,09,00,10,3.40
2010,11,09,00,11,3.50
2010,11,09,00,12,3.50
2010,11,09,00,13,3.50
2010,11,09,00,14,3.50
2010,11,09,00,15,3.40
2010,11,09,00,16,3.40
2010,11,09,00,17,3.30
2010,11,09,00,18,3.30
2010,11,09,00,19,3.30
2010,11,09,00,20,3.20
2010,11,09,00,21,3.20
2010,11,09,00,22,3.10
2010,11,09,00,23,3.10
2010,11,09,00,24,3.10
2010,11,09,00,25,3.20
2010,11,09,00,26,3.20
2010,11,09,00,27,3.30
2010,11,09,00,28,3.40
2010,11,09,00,29,3.50
2010,11,09,00,30,3.50
2010,11,09,00,31,3.60
2010,11,09,00,32,3.70
2010,11,09,00,33,3.70
2010,11,09,00,34,3.70
2010,11,09,00,35,3.70
2010,11,09,00,36,3.80
2010,11,09,00,37,3.80
2010,11,09,00,38,3.80
2010,11,09,00,39,3.80
2010,11,09,00,40,3.80
2010,11,09,00,41,3.70
2010,11,09,00,42,3.70
2010,11,09,00,43,3.70
2010,11,09,00,44,3.70
2010,11,09,00,45,3.70
2010,11,09,00,46,3.60
2010,11,09,00,47,3.60
2010,11,09,00,48,3.50
2010,11,09,00,49,3.40
2010,11,09,00,50,3.40
2010,11,09,00,51,3.30
2010,11,09,00,52,3.30
2010,11,09,00,53,3.40
2010,11,09,00,54,3.50
2010,11,09,00,55,3.50
2010,11,09,00,56,3.60
2010,11,09,00,57,3.60
2010,11,09,00,58,3.70
2010,11,09,00,59,3.70
2010,11,09,01,00,3.70
2010,11,09,01,01,3.70
2010,11,09,01,02,3.60
2010,11,09,01,03,3.60
2010,11,09,01,04,3.60
2010,11,09,01,05,3.50
2010,11,09,01,06,3.50
2010,11,09,01,07,3.40
2010,11,09,01,08,3.40
2010,11,09,01,09,3.40
2010,11,09,01,10,3.40
2010,11,09,01,11,3.40
2010,11,09,01,12,3.30
2010,11,09,01,13,3.30
2010,11,09,01,14,3.30
2010,11,09,01,15,3.30
2010,11,09,01,16,3.30
2010,11,09,01,17,3.40
2010,11,09,01,18,3.40
2010,11,09,01,19,3.40
2010,11,09,01,20,3.40
2010,11,09,01,21,3.50
2010,11,09,01,22,3.50
2010,11,09,01,23,3.60
2010,11,09,01,24,3.60
2010,11,09,01,25,3.70
2010,11,09,01,26,3.70
2010,11,09,01,27,3.70
2010,11,09,01,28,3.70
2010,11,09,01,29,3.70
2010,11,09,01,30,3.80
2010,11,09,01,31,3.80
2010,11,09,01,32,3.80
2010,11,09,01,33,3.80
2010,11,09,01,34,3.70
2010,11,09,01,35,3.80
2010,11,09,01,36,3.80
2010,11,09,01,37,3.80
2010,11,09,01,38,3.80
2010,11,09,01,39,3.80
2010,11,09,01,40,3.80
2010,11,09,01,41,3.80
2010,11,09,01,42,3.90
2010,11,09,01,43,3.90
2010,11,09,01,44,3.90
2010,11,09,01,45,4.00
2010,11,09,01,46,4.00
2010,11,09,01,47,4.10
2010,11,09,01,48,4.10
2010,11,09,01,49,4.10
2010,11,09,01,50,4.10
2010,11,09,01,51,4.10
2010,11,09,01,52,4.00
2010,11,09,01,53,4.00
2010,11,09,01,54,3.90
2010,11,09,01,55,3.80
2010,11,09,01,56,3.80
2010,11,09,01,57,3.80
2010,11,09,01,58,3.80
2010,11,09,01,59,3.80
2010,11,09,02,00,3.80
2010,11,09,02,01,3.80
2010,11,09,02,02,3.90
2010,11,09,02,03,3.90
2010,11,09,02,04,3.90
2010,11,09,02,05,4.00
2010,11,09,02,06,4.00
2010,11,09,02,07,4.00
2010,11,09,02,08,4.00
2010,11,09,02,09,4.00
2010,11,09,02,10,3.90
2010,11,09,02,11,3.90
2010,11,09,02,12,3.90
2010,11,09,02,13,3.90
2010,11,09,02,14,3.90
2010,11,09,02,15,3.90
2010,11,09,02,16,3.90
2010,11,09,02,17,3.90
2010,11,09,02,18,3.90
2010,11,09,02,19,3.90
2010,11,09,02,20,3.90
2010,11,09,02,21,3.90
2010,11,09,02,22,4.00
2010,11,09,02,23,4.00
2010,11,09,02,24,4.00
2010,11,09,02,25,4.00
2010,11,09,02,26,4.00
2010,11,09,02,27,4.10
2010,11,09,02,28,4.10
2010,11,09,02,29,4.10
2010,11,09,02,30,4.10
2010,11,09,02,31,4.10
2010,11,09,02,32,4.10
2010,11,09,02,33,4.20
2010,11,09,02,34,4.20
2010,11,09,02,35,4.20
2010,11,09,02,36,4.20
2010,11,09,02,37,4.20
2010,11,09,02,38,4.20
2010,11,09,02,39,4.20
2010,11,09,02,40,4.20
2010,11,09,02,41,4.20
2010,11,09,02,42,4.20
2010,11,09,02,43,4.20
2010,11,09,02,44,4.20
2010,11,09,02,45,4.20
2010,11,09,02,46,4.20
2010,11,09,02,47,4.20
2010,11,09,02,48,4.20
2010,11,09,02,49,4.20
2010,11,09,02,50,4.20
2010,11,09,02,51,4.20
2010,11,09,02,52,4.20
2010,11,09,02,53,4.20
2010,11,09,02,54,4.20
2010,11,09,02,55,4.20
2010,11,09,02,56,4.20
2010,11,09,02,57,4.20
2010,11,09,02,58,4.20
2010,11,09,02,59,4.20
2010,11,09,03,00,4.20
2010,11,09,03,01,4.20
2010,11,09,03,02,4.20
2010,11,09,03,03,4.20
2010,11,09,03,04,4.20
2010,11,09,03,05,4.20
2010,11,09,03,06,4.20
2010,11,09,03,07,4.20
2010,11,09,03,08,4.30
2010,11,09,03,09,4.30
2010,11,09,03,10,4.30
2010,11,09,03,11,4.30
2010,11,09,03,12,4.30
2010,11,09,03,13,4.30
2010,11,09,03,14,4.30
2010,11,09,03,15,4.30
2010,11,09,03,16,4.30
2010,11,09,03,17,4.40
2010,11,09,03,18,4.40
2010,11,09,03,19,4.40
2010,11,09,03,20,4.40
2010,11,09,03,21,4.40
2010,11,09,03,22,4.40
2010,11,09,03,23,4.40
2010,11,09,03,24,4.40
2010,11,09,03,25,4.40
2010,11,09,03,26,4.40
2010,11,09,03,27,4.40
2010,11,09,03,28,4.40
2010,11,09,03,29,4.50
2010,11,09,03,30,4.50
2010,11,09,03,31,4.50
2010,11,09,03,32,4.50
2010,11,09,03,33,4.50
2010,11,09,03,34,4.50
2010,11,09,03,35,4.50
2010,11,09,03,36,4.50
2010,11,09,03,37,4.50
2010,11,09,03,38,4.50
2010,11,09,03,39,4.50
2010,11,09,03,40,4.50
2010,11,09,03,41,4.50
2010,11,09,03,42,4.60
2010,11,09,03,43,4.60
2010,11,09,03,44,4.60
2010,11,09,03,45,4.60
2010,11,09,03,46,4.60
2010,11,09,03,47,4.60
2010,11,09,03,48,4.60
2010,11,09,03,49,4.60
2010,11,09,03,50,4.60
2010,11,09,03,51,4.60
2010,11,09,03,52,4.60
2010,11,09,03,53,4.60
2010,11,09,03,54,4.60
2010,11,09,03,55,4.60
2010,11,09,03,56,4.60
2010,11,09,03,57,4.60
2010,11,09,03,58,4.60
2010,11,09,03,59,4.60
2010,11,09,04,00,4.50
2010,11,09,04,01,4.50
2010,11,09,04,02,4.50
2010,11,09,04,03,4.50
2010,11,09,04,04,4.50
2010,11,09,04,05,4.50
2010,11,09,04,06,4.50
2010,11,09,04,07,4.50
2010,11,09,04,08,4.50
2010,11,09,04,09,4.50
2010,11,09,04,10,4.50
2010,11,09,04,11,4.50
2010,11,09,04,12,4.50
2010,11,09,04,13,4.60
2010,11,09,04,14,4.60
2010,11,09,04,15,4.60
2010,11,09,04,16,4.60
2010,11,09,04,17,4.60
2010,11,09,04,18,4.60
2010,11,09,04,19,4.60
2010,11,09,04,20,4.60
2010,11,09,04,21,4.60
2010,11,09,04,22,4.60
2010,11,09,04,23,4.60
2010,11,09,04,24,4.60
2010,11,09,04,25,4.60
2010,11,09,04,26,4.70
2010,11,09,04,27,4.70
2010,11,09,04,28,4.70
2010,11,09,04,29,4.70
2010,11,09,04,30,4.70
2010,11,09,04,31,4.70
2010,11,09,04,32,4.70
2010,11,09,04,33,4.70
2010,11,09,04,34,4.70
2010,11,09,04,35,4.70
2010,11,09,04,36,4.70
2010,11,09,04,37,4.70
2010,11,09,04,38,4.70
2010,11,09,04,39,4.80
2010,11,09,04,40,4.80
2010,11,09,04,41,4.80
2010,11,09,04,42,4.80
2010,11,09,04,43,4.80
2010,11,09,04,44,4.80
2010,11,09,04,45,4.80
2010,11,09,04,46,4.80
2010,11,09,04,47,4.80
2010,11,09,04,48,4.80
2010,11,09,04,49,4.80
2010,11,09,04,50,4.80
2010,11,09,04,51,4.80
2010,11,09,04,52,4.80
2010,11,09,04,53,4.80
2010,11,09,04,54,4.80
2010,11,09,04,55,4.80
2010,11,09,04,56,4.80
2010,11,09,04,57,4.80
2010,11,09,04,58,4.80
2010,11,09,04,59,4.80
2010,11,09,05,00,4.80
2010,11,09,05,01,4.80
2010,11,09,05,02,4.80
2010,11,09,05,03,4.80
2010,11,09,05,04,4.70
2010,11,09,05,05,4.70
2010,11,09,05,06,4.70
2010,11,09,05,07,4.70
2010,11,09,05,08,4.70
2010,11,09,05,09,4.70
2010,11,09,05,10,4.70
2010,11,09,05,11,4.70
2010,11,09,05,12,4.70
2010,11,09,05,13,4.70
2010,11,09,05,14,4.70
2010,11,09,05,15,4.60
2010,11,09,05,16,4.60
2010,11,09,05,17,4.60
2010,11,09,05,18,4.60
2010,11,09,05,19,4.60
2010,11,09,05,20,4.60
2010,11,09,05,21,4.60
2010,11,09,05,22,4.60
2010,11,09,05,23,4.60
2010,11,09,05,24,4.60
2010,11,09,05,25,4.60
2010,11,09,05,26,4.60
2010,11,09,05,27,4.60
2010,11,09,05,28,4.60
2010,11,09,05,29,4.60
2010,11,09,05,30,4.60
2010,11,09,05,31,4.60
2010,11,09,05,32,4.60
2010,11,09,05,33,4.60
2010,11,09,05,34,4.60
2010,11,09,05,35,4.60
2010,11,09,05,36,4.60
2010,11,09,05,37,4.60
2010,11,09,05,38,4.60
2010,11,09,05,39,4.60
2010,11,09,05,40,4.60
2010,11,09,05,41,4.60
2010,11,09,05,42,4.60
2010,11,09,05,43,4.60
2010,11,09,05,44,4.60
2010,11,09,05,45,4.60
2010,11,09,05,46,4.60
2010,11,09,05,47,4.60
2010,11,09,05,48,4.60
2010,11,09,05,49,4.60
2010,11,09,05,50,4.60
2010,11,09,05,51,4.60
2010,11,09,05,52,4.60
2010,11,09,05,53,4.60
2010,11,09,05,54,4.60
2010,11,09,05,55,4.60
2010,11,09,05,56,4.60
2010,11,09,05,57,4.60
2010,11,09,05,58,4.60
2010,11,09,05,59,4.60
2010,11,09,06,00,4.60
2010,11,09,06,01,4.60
2010,11,09,06,02,4.70
2010,11,09,06,03,4.70
2010,11,09,06,04,4.70
2010,11,09,06,05,4.70
2010,11,09,06,06,4.70
2010,11,09,06,07,4.70
2010,11,09,06,08,4.70
2010,11,09,06,09,4.70
2010,11,09,06,10,4.70
2010,11,09,06,11,4.70
2010,11,09,06,12,4.70
2010,11,09,06,13,4.70
2010,11,09,06,14,4.70
2010,11,09,06,15,4.80
2010,11,09,06,16,4.80
2010,11,09,06,17,4.80
2010,11,09,06,18,4.80
2010,11,09,06,19,4.80
2010,11,09,06,20,4.80
2010,11,09,06,21,4.80
2010,11,09,06,22,4.80
2010,11,09,06,23,4.80
2010,11,09,06,24,4.80
2010,11,09,06,25,4.80
2010,11,09,06,26,4.80
2010,11,09,06,27,4.80
2010,11,09,06,28,4.80
2010,11,09,06,29,4.80
2010,11,09,06,30,4.80
2010,11,09,06,31,4.80
2010,11,09,06,32,4.80
2010,11,09,06,33,4.80
2010,11,09,06,34,4.80
2010,11,09,06,35,4.80
2010,11,09,06,36,4.90
2010,11,09,06,37,4.90
2010,11,09,06,38,4.90
2010,11,09,06,39,4.90
2010,11,09,06,40,4.90
2010,11,09,06,41,4.90
2010,11,09,06,42,4.90
2010,11,09,06,43,4.90
2010,11,09,06,44,4.90
2010,11,09,06,45,5.00
2010,11,09,06,46,5.00
2010,11,09,06,47,5.00
2010,11,09,06,48,5.00
2010,11,09,06,49,5.10
2010,11,09,06,50,5.10
2010,11,09,06,51,5.10
2010,11,09,06,52,5.10
2010,11,09,06,53,5.10
2010,11,09,06,54,5.10
2010,11,09,06,55,5.10
2010,11,09,06,56,5.10
2010,11,09,06,57,5.10
2010,11,09,06,58,5.10
2010,11,09,06,59,5.10
2010,11,09,07,00,5.10
2010,11,09,07,01,5.10
2010,11,09,07,02,5.10
2010,11,09,07,03,5.10
2010,11,09,07,04,5.10
2010,11,09,07,05,5.10
2010,11,09,07,06,5.10
2010,11,09,07,07,5.10
2010,11,09,07,08,5.10
2010,11,09,07,09,5.10
2010,11,09,07,10,5.10
2010,11,09,07,11,5.10
2010,11,09,07,12,5.20
2010,11,09,07,13,5.20
2010,11,09,07,14,5.20
2010,11,09,07,15,5.20
2010,11,09,07,16,5.20
2010,11,09,07,17,5.20
2010,11,09,07,18,5.20
2010,11,09,07,19,5.20
2010,11,09,07,20,5.20
2010,11,09,07,21,5.20
2010,11,09,07,22,5.20
2010,11,09,07,23,5.20
2010,11,09,07,24,5.20
2010,11,09,07,25,5.20
2010,11,09,07,26,5.20
2010,11,09,07,27,5.20
2010,11,09,07,28,5.20
2010,11,09,07,29,5.20
2010,11,09,07,30,5.20
2010,11,09,07,31,5.30
2010,11,09,07,32,5.30
2010,11,09,07,33,5.30
2010,11,09,07,34,5.30
2010,11,09,07,35,5.30
2010,11,09,07,36,5.30
2010,11,09,07,37,5.30
2010,11,09,07,38,5.30
2010,11,09,07,39,5.30
2010,11,09,07,40,5.30
2010,11,09,07,41,5.30
2010,11,09,07,42,5.30
2010,11,09,07,43,5.30
2010,11,09,07,44,5.40
2010,11,09,07,45,5.40
2010,11,09,07,46,5.40
2010,11,09,07,47,5.40
2010,11,09,07,48,5.40
2010,11,09,07,49,5.40
2010,11,09,07,50,5.40
2010,11,09,07,51,5.40
2010,11,09,07,52,5.40
2010,11,09,07,53,5.40
2010,11,09,07,54,5.40
2010,11,09,07,55,5.40
2010,11,09,07,56,5.50
2010,11,09,07,57,5.50
2010,11,09,07,58,5.50
2010,11,09,07,59,5.60
2010,11,09,08,00,5.60
2010,11,09,08,01,5.60
2010,11,09,08,02,5.60
2010,11,09,08,03,5.60
2010,11,09,08,04,5.60
2010,11,09,08,05,5.60
2010,11,09,08,06,5.70
2010,11,09,08,07,5.70
2010,11,09,08,08,5.70
2010,11,09,08,09,5.70
2010,11,09,08,10,5.70
2010,11,09,08,11,5.70
2010,11,09,08,12,5.70
2010,11,09,08,13,5.70
2010,11,09,08,14,5.70
2010,11,09,08,15,5.80
2010,11,09,08,16,5.80
2010,11,09,08,17,5.80
2010,11,09,08,18,5.80
2010,11,09,08,19,5.80
2010,11,09,08,20,5.80
2010,11,09,08,21,5.80
2010,11,09,08,22,5.70
2010,11,09,08,23,5.70
2010,11,09,08,24,5.70
2010,11,09,08,25,5.70
2010,11,09,08,26,5.60
2010,11,09,08,27,5.60
2010,11,09,08,28,5.60
2010,11,09,08,29,5.60
2010,11,09,08,30,5.60
2010,11,09,08,31,5.60
2010,11,09,08,32,5.60
2010,11,09,08,33,5.60
2010,11,09,08,34,5.60
2010,11,09,08,35,5.60
2010,11,09,08,36,5.60
2010,11,09,08,37,5.60
2010,11,09,08,38,5.60
2010,11,09,08,39,5.60
2010,11,09,08,40,5.60
2010,11,09,08,41,5.60
2010,11,09,08,42,5.60
2010,11,09,08,43,5.60
2010,11,09,08,44,5.60
2010,11,09,08,45,5.60
2010,11,09,08,46,5.60
2010,11,09,08,47,5.60
2010,11,09,08,48,5.70
2010,11,09,08,49,5.70
2010,11,09,08,50,5.70
2010,11,09,08,51,5.70
2010,11,09,08,52,5.70
2010,11,09,08,53,5.70
2010,11,09,08,54,5.70
2010,11,09,08,55,5.70
2010,11,09,08,56,5.70
2010,11,09,08,57,5.70
2010,11,09,08,58,5.70
2010,11,09,08,59,5.70
2010,11,09,09,00,5.70
2010,11,09,09,01,5.70
2010,11,09,09,02,5.70
2010,11,09,09,03,5.70
2010,11,09,09,04,5.70
2010,11,09,09,05,5.70
2010,11,09,09,06,5.70
2010,11,09,09,07,5.60
2010,11,09,09,08,5.60
2010,11,09,09,09,5.60
2010,11,09,09,10,5.60
2010,11,09,09,11,5.60
2010,11,09,09,12,5.60
2010,11,09,09,13,5.60
2010,11,09,09,14,5.60
2010,11,09,09,15,5.60
2010,11,09,09,16,5.50
2010,11,09,09,17,5.50
2010,11,09,09,18,5.50
2010,11,09,09,19,5.50
2010,11,09,09,20,5.50
2010,11,09,09,21,5.50
2010,11,09,09,22,5.50
2010,11,09,09,23,5.50
2010,11,09,09,24,5.50
2010,11,09,09,25,5.50
2010,11,09,09,26,5.50
2010,11,09,09,27,5.40
2010,11,09,09,28,5.40
2010,11,09,09,29,5.40
2010,11,09,09,30,5.40
2010,11,09,09,31,5.40
2010,11,09,09,32,5.40
2010,11,09,09,33,5.40
2010,11,09,09,34,5.40
2010,11,09,09,35,5.40
2010,11,09,09,36,5.40
2010,11,09,09,37,5.40
2010,11,09,09,38,5.40
2010,11,09,09,39,5.40
2010,11,09,09,40,5.40
2010,11,09,09,41,5.40
2010,11,09,09,42,5.40
2010,11,09,09,43,5.40
2010,11,09,09,44,5.40
2010,11,09,09,45,5.30
2010,11,09,09,46,5.40
2010,11,09,09,47,5.40
2010,11,09,09,48,5.40
2010,11,09,09,49,5.30
2010,11,09,09,50,5.30
2010,11,09,09,51,5.30
2010,11,09,09,52,5.30
2010,11,09,09,53,5.30
2010,11,09,09,54,5.30
2010,11,09,09,55,5.30
2010,11,09,09,56,5.30
2010,11,09,09,57,5.30
2010,11,09,09,58,5.30
2010,11,09,09,59,5.40
2010,11,09,10,00,5.40
2010,11,09,10,01,5.40
2010,11,09,10,02,5.40
2010,11,09,10,03,5.40
2010,11,09,10,04,5.30
2010,11,09,10,05,5.30
2010,11,09,10,06,5.30
2010,11,09,10,07,5.40
2010,11,09,10,08,5.40
2010,11,09,10,09,5.30
2010,11,09,10,10,5.30
2010,11,09,10,11,5.30
2010,11,09,10,12,5.30
2010,11,09,10,13,5.30
2010,11,09,10,14,5.30
2010,11,09,10,15,5.30
2010,11,09,10,16,5.30
2010,11,09,10,17,5.30
2010,11,09,10,18,5.30
2010,11,09,10,19,5.30
2010,11,09,10,20,5.30
2010,11,09,10,21,5.30
2010,11,09,10,22,5.30
2010,11,09,10,23,5.30
2010,11,09,10,24,5.30
2010,11,09,10,25,5.30
2010,11,09,10,26,5.30
2010,11,09,10,27,5.30
2010,11,09,10,28,5.20
2010,11,09,10,29,5.20
2010,11,09,10,30,5.20
2010,11,09,10,31,5.20
2010,11,09,10,32,5.20
2010,11,09,10,33,5.20
2010,11,09,10,34,5.20
2010,11,09,10,35,5.20
2010,11,09,10,36,5.20
2010,11,09,10,37,5.20
2010,11,09,10,38,5.20
2010,11,09,10,39,5.20
2010,11,09,10,40,5.10
2010,11,09,10,41,5.10
2010,11,09,10,42,5.10
2010,11,09,10,43,5.10
2010,11,09,10,44,5.10
2010,11,09,10,45,5.10
2010,11,09,10,46,5.10
2010,11,09,10,47,5.10
2010,11,09,10,48,5.10
2010,11,09,10,49,5.10
2010,11,09,10,50,5.10
2010,11,09,10,51,5.10
2010,11,09,10,52,5.10
2010,11,09,10,53,5.10
2010,11,09,10,54,5.10
2010,11,09,10,55,5.10
2010,11,09,10,56,5.10
2010,11,09,10,57,5.00
2010,11,09,10,58,5.00
2010,11,09,10,59,5.00
2010,11,09,11,00,5.00
2010,11,09,11,01,5.00
2010,11,09,11,02,5.00
2010,11,09,11,03,5.00
2010,11,09,11,04,5.00
2010,11,09,11,05,5.00
2010,11,09,11,06,5.00
2010,11,09,11,07,4.90
2010,11,09,11,08,4.90
2010,11,09,11,09,4.90
2010,11,09,11,10,4.90
2010,11,09,11,11,4.80
2010,11,09,11,12,4.80
2010,11,09,11,13,4.80
2010,11,09,11,14,4.80
2010,11,09,11,15,4.80
2010,11,09,11,16,4.80
2010,11,09,11,17,4.80
2010,11,09,11,18,4.80
2010,11,09,11,19,4.80
2010,11,09,11,20,4.80
2010,11,09,11,21,4.80
2010,11,09,11,22,4.80
2010,11,09,11,23,4.80
2010,11,09,11,24,4.80
2010,11,09,11,25,4.80
2010,11,09,11,26,4.80
2010,11,09,11,27,4.80
2010,11,09,11,28,4.80
2010,11,09,11,29,4.80
2010,11,09,11,30,4.80
2010,11,09,11,31,4.80
2010,11,09,11,32,4.80
2010,11,09,11,33,4.80
2010,11,09,11,34,4.80
2010,11,09,11,35,4.80
2010,11,09,11,36,4.80
2010,11,09,11,37,4.80
2010,11,09,11,38,4.80
2010,11,09,11,39,4.80
2010,11,09,11,40,4.80
2010,11,09,11,41,4.80
2010,11,09,11,42,4.80
2010,11,09,11,43,4.80
2010,11,09,11,44,4.80
2010,11,09,11,45,4.70
2010,11,09,11,46,4.70
2010,11,09,11,47,4.70
2010,11,09,11,48,4.70
2010,11,09,11,49,4.70
2010,11,09,11,50,4.70
2010,11,09,11,51,4.70
2010,11,09,11,52,4.70
2010,11,09,11,53,4.70
2010,11,09,11,54,4.70
2010,11,09,11,55,4.70
2010,11,09,11,56,4.70
2010,11,09,11,57,4.70
2010,11,09,11,58,4.70
2010,11,09,11,59,4.70
2010,11,09,12,00,4.70
2010,11,09,12,01,4.70
2010,11,09,12,02,4.70
2010,11,09,12,03,4.70
2010,11,09,12,04,4.70
2010,11,09,12,05,4.70
2010,11,09,12,06,4.70
2010,11,09,12,07,4.70
2010,11,09,12,08,4.70
2010,11,09,12,09,4.70
2010,11,09,12,10,4.70
2010,11,09,12,11,4.70
2010,11,09,12,12,4.70
2010,11,09,12,13,4.70
2010,11,09,12,14,4.70
2010,11,09,12,15,4.70
2010,11,09,12,16,4.70
2010,11,09,12,17,4.70
2010,11,09,12,18,4.70
2010,11,09,12,19,4.70
2010,11,09,12,20,4.70
2010,11,09,12,21,4.70
2010,11,09,12,22,4.70
2010,11,09,12,23,4.70
2010,11,09,12,24,4.70
2010,11,09,12,25,4.80
2010,11,09,12,26,4.70
2010,11,09,12,27,4.70
2010,11,09,12,28,4.70
2010,11,09,12,29,4.80
2010,11,09,12,30,4.80
2010,11,09,12,31,4.80
2010,11,09,12,32,4.80
2010,11,09,12,33,4.80
2010,11,09,12,34,4.80
2010,11,09,12,35,4.80
2010,11,09,12,36,4.80
2010,11,09,12,37,4.80
2010,11,09,12,38,4.80
2010,11,09,12,39,4.80
2010,11,09,12,40,4.80
2010,11,09,12,41,4.90
2010,11,09,12,42,4.90
2010,11,09,12,43,4.90
2010,11,09,12,44,4.90
2010,11,09,12,45,4.90
2010,11,09,12,46,4.90
2010,11,09,12,47,4.90
2010,11,09,12,48,4.90
2010,11,09,12,49,4.90
2010,11,09,12,50,4.90
2010,11,09,12,51,4.90
2010,11,09,12,52,5.00
2010,11,09,12,53,4.90
2010,11,09,12,54,5.00
2010,11,09,12,55,4.90
2010,11,09,12,56,4.90
2010,11,09,12,57,4.90
2010,11,09,12,58,4.90
2010,11,09,12,59,4.90
2010,11,09,13,00,4.90
2010,11,09,13,01,4.90
2010,11,09,13,02,4.90
2010,11,09,13,03,5.00
2010,11,09,13,04,5.00
2010,11,09,13,05,5.00
2010,11,09,13,06,4.90
2010,11,09,13,07,4.90
2010,11,09,13,08,4.90
2010,11,09,13,09,4.90
2010,11,09,13,10,4.90
2010,11,09,13,11,4.90
2010,11,09,13,12,4.90
2010,11,09,13,13,4.80
2010,11,09,13,14,4.80
2010,11,09,13,15,4.80
2010,11,09,13,16,4.80
2010,11,09,13,17,4.80
2010,11,09,13,18,4.80
2010,11,09,13,19,4.80
2010,11,09,13,20,4.80
2010,11,09,13,21,4.80
2010,11,09,13,22,4.80
2010,11,09,13,23,4.90
2010,11,09,13,24,4.90
2010,11,09,13,25,4.90
2010,11,09,13,26,4.90
2010,11,09,13,27,4.90
2010,11,09,13,28,4.90
2010,11,09,13,29,4.90
2010,11,09,13,30,4.90
2010,11,09,13,31,4.90
2010,11,09,13,32,4.90
2010,11,09,13,33,4.90
2010,11,09,13,34,4.90
2010,11,09,13,35,4.90
2010,11,09,13,36,4.90
2010,11,09,13,37,5.00
2010,11,09,13,38,4.90
2010,11,09,13,39,4.90
2010,11,09,13,40,4.90
2010,11,09,13,41,4.90
2010,11,09,13,42,4.90
2010,11,09,13,43,4.90
2010,11,09,13,44,4.90
2010,11,09,13,45,4.90
2010,11,09,13,46,5.00
2010,11,09,13,47,5.00
2010,11,09,13,48,5.00
2010,11,09,13,49,5.00
2010,11,09,13,50,5.00
2010,11,09,13,51,5.10
2010,11,09,13,52,5.10
2010,11,09,13,53,5.10
2010,11,09,13,54,5.10
2010,11,09,13,55,5.10
2010,11,09,13,56,5.10
2010,11,09,13,57,5.10
2010,11,09,13,58,5.10
2010,11,09,13,59,5.20
2010,11,09,14,00,5.20
2010,11,09,14,01,5.20
2010,11,09,14,02,5.20
2010,11,09,14,03,5.20
2010,11,09,14,04,5.20
2010,11,09,14,05,5.20
2010,11,09,14,06,5.30
2010,11,09,14,07,5.30
2010,11,09,14,08,5.30
2010,11,09,14,09,5.30
2010,11,09,14,10,5.30
2010,11,09,14,11,5.30
2010,11,09,14,12,5.30
2010,11,09,14,13,5.30
2010,11,09,14,14,5.40
2010,11,09,14,15,5.40
2010,11,09,14,16,5.40
2010,11,09,14,17,5.40
2010,11,09,14,18,5.40
2010,11,09,14,19,5.40
2010,11,09,14,20,5.40
2010,11,09,14,21,5.40
2010,11,09,14,22,5.40
2010,11,09,14,23,5.40
2010,11,09,14,24,5.40
2010,11,09,14,25,5.40
2010,11,09,14,26,5.40
2010,11,09,14,27,5.40
2010,11,09,14,28,5.50
2010,11,09,14,29,5.50
2010,11,09,14,30,5.50
2010,11,09,14,31,5.50
2010,11,09,14,32,5.50
2010,11,09,14,33,5.50
2010,11,09,14,34,5.50
2010,11,09,14,35,5.50
2010,11,09,14,36,5.50
2010,11,09,14,37,5.60
2010,11,09,14,38,5.60
2010,11,09,14,39,5.60
2010,11,09,14,40,5.60
2010,11,09,14,41,5.60
2010,11,09,14,42,5.60
2010,11,09,14,43,5.60
2010,11,09,14,44,5.60
2010,11,09,14,45,5.60
2010,11,09,14,46,5.60
2010,11,09,14,47,5.60
2010,11,09,14,48,5.60
2010,11,09,14,49,5.60
2010,11,09,14,50,5.60
2010,11,09,14,51,5.60
2010,11,09,14,52,5.60
2010,11,09,14,53,5.60
2010,11,09,14,54,5.60
2010,11,09,14,55,5.60
2010,11,09,14,56,5.60
2010,11,09,14,57,5.60
2010,11,09,14,58,5.70
2010,11,09,14,59,5.70
2010,11,09,15,00,5.60
2010,11,09,15,01,5.60
2010,11,09,15,02,5.60
2010,11,09,15,03,5.60
2010,11,09,15,04,5.60
2010,11,09,15,05,5.60
2010,11,09,15,06,5.60
2010,11,09,15,07,5.60
2010,11,09,15,08,5.60
2010,11,09,15,09,5.60
2010,11,09,15,10,5.50
2010,11,09,15,11,5.50
2010,11,09,15,12,5.50
2010,11,09,15,13,5.50
2010,11,09,15,14,5.50
2010,11,09,15,15,5.60
2010,11,09,15,16,5.60
2010,11,09,15,17,5.60
2010,11,09,15,18,5.60
2010,11,09,15,19,5.60
2010,11,09,15,20,5.60
2010,11,09,15,21,5.60
2010,11,09,15,22,5.60
2010,11,09,15,23,5.60
2010,11,09,15,24,5.60
2010,11,09,15,25,5.60
2010,11,09,15,26,5.60
2010,11,09,15,27,5.50
2010,11,09,15,28,5.50
2010,11,09,15,29,5.50
2010,11,09,15,30,5.50
2010,11,09,15,31,5.50
2010,11,09,15,32,5.50
2010,11,09,15,33,5.50
2010,11,09,15,34,5.50
2010,11,09,15,35,5.50
2010,11,09,15,36,5.50
2010,11,09,15,37,5.50
2010,11,09,15,38,5.50
2010,11,09,15,39,5.50
2010,11,09,15,40,5.50
2010,11,09,15,41,5.50
2010,11,09,15,42,5.60
2010,11,09,15,43,5.50
2010,11,09,15,44,5.50
2010,11,09,15,45,5.50
2010,11,09,15,46,5.50
2010,11,09,15,47,5.50
2010,11,09,15,48,5.50
2010,11,09,15,49,5.50
2010,11,09,15,50,5.50
2010,11,09,15,51,5.50
2010,11,09,15,52,5.40
2010,11,09,15,53,5.40
2010,11,09,15,54,5.40
2010,11,09,15,55,5.40
2010,11,09,15,56,5.40
2010,11,09,15,57,5.40
2010,11,09,15,58,5.40
2010,11,09,15,59,5.40
2010,11,09,16,00,5.40
2010,11,09,16,01,5.40
2010,11,09,16,02,5.40
2010,11,09,16,03,5.40
2010,11,09,16,04,5.30
2010,11,09,16,05,5.30
2010,11,09,16,06,5.30
2010,11,09,16,07,5.30
2010,11,09,16,08,5.30
2010,11,09,16,09,5.30
2010,11,09,16,10,5.30
2010,11,09,16,11,5.30
2010,11,09,16,12,5.30
2010,11,09,16,13,5.30
2010,11,09,16,14,5.30
2010,11,09,16,15,5.30
2010,11,09,16,16,5.30
2010,11,09,16,17,5.30
2010,11,09,16,18,5.30
2010,11,09,16,19,5.30
2010,11,09,16,20,5.30
2010,11,09,16,21,5.30
2010,11,09,16,22,5.30
2010,11,09,16,23,5.30
2010,11,09,16,24,5.30
2010,11,09,16,25,5.30
2010,11,09,16,26,5.30
2010,11,09,16,27,5.30
2010,11,09,16,28,5.30
2010,11,09,16,29,5.30
2010,11,09,16,30,5.30
2010,11,09,16,31,5.30
2010,11,09,16,32,5.30
2010,11,09,16,33,5.30
2010,11,09,16,34,5.30
2010,11,09,16,35,5.30
2010,11,09,16,36,5.30
2010,11,09,16,37,5.30
2010,11,09,16,38,5.30
2010,11,09,16,39,5.30
2010,11,09,16,40,5.30
2010,11,09,16,41,5.30
2010,11,09,16,42,5.30
2010,11,09,16,43,5.30
2010,11,09,16,44,5.30
2010,11,09,16,45,5.30
2010,11,09,16,46,5.30
2010,11,09,16,47,5.30
2010,11,09,16,48,5.30
2010,11,09,16,49,5.30
2010,11,09,16,50,5.30
2010,11,09,16,51,5.30
2010,11,09,16,52,5.30
2010,11,09,16,53,5.30
2010,11,09,16,54,5.30
2010,11,09,16,55,5.30
2010,11,09,16,56,5.30
2010,11,09,16,57,5.30
2010,11,09,16,58,5.30
2010,11,09,16,59,5.30
2010,11,09,17,00,5.30
2010,11,09,17,01,5.30
2010,11,09,17,02,5.30
2010,11,09,17,03,5.30
2010,11,09,17,04,5.30
2010,11,09,17,05,5.30
2010,11,09,17,06,5.30
2010,11,09,17,07,5.30
2010,11,09,17,08,5.30
2010,11,09,17,09,5.30
2010,11,09,17,10,5.30
2010,11,09,17,11,5.30
2010,11,09,17,12,5.30
2010,11,09,17,13,5.30
2010,11,09,17,14,5.30
2010,11,09,17,15,5.30
2010,11,09,17,16,5.30
2010,11,09,17,17,5.30
2010,11,09,17,18,5.30
2010,11,09,17,19,5.30
2010,11,09,17,20,5.30
2010,11,09,17,21,5.30
2010,11,09,17,22,5.30
2010,11,09,17,23,5.30
2010,11,09,17,24,5.30
2010,11,09,17,25,5.30
2010,11,09,17,26,5.30
2010,11,09,17,27,5.30
2010,11,09,17,28,5.30
2010,11,09,17,29,5.30
2010,11,09,17,30,5.30
2010,11,09,17,31,5.30
2010,11,09,17,32,5.30
2010,11,09,17,33,5.30
2010,11,09,17,34,5.30
2010,11,09,17,35,5.30
2010,11,09,17,36,5.30
2010,11,09,17,37,5.30
2010,11,09,17,38,5.30
2010,11,09,17,39,5.30
2010,11,09,17,40,5.30
2010,11,09,17,41,5.30
2010,11,09,17,42,5.30
2010,11,09,17,43,5.40
2010,11,09,17,44,5.40
2010,11,09,17,45,5.40
2010,11,09,17,46,5.40
2010,11,09,17,47,5.40
2010,11,09,17,48,5.40
2010,11,09,17,49,5.40
2010,11,09,17,50,5.40
2010,11,09,17,51,5.30
2010,11,09,17,52,5.30
2010,11,09,17,53,5.30
2010,11,09,17,54,5.30
2010,11,09,17,55,5.30
2010,11,09,17,56,5.30
2010,11,09,17,57,5.30
2010,11,09,17,58,5.30
2010,11,09,17,59,5.30
2010,11,09,18,00,5.30
2010,11,09,18,01,5.30
2010,11,09,18,02,5.30
2010,11,09,18,03,5.30
2010,11,09,18,04,5.30
2010,11,09,18,05,5.30
2010,11,09,18,06,5.30